Вернуться в каталог

STARLINK-31990

АктивенСвязьVLEO
NORAD 60024·PAYLOAD·🇺🇸 United States

Запущен Jun 8, 2024 с Cape Canaveral Space Force Station

Loading…

Ближайшие Пролёты (ближайшие 24 часа)

TLE

СвежийSource: CelesTrak SupGP

Эпоха: Sep 15, 2026, 02:52 UTC

1 60024C 24111J   26258.11993056 -.00003468  00000+0 -10246-3 0  2584
2 60024  53.1570 274.6742 0001186  91.1658 181.2996 15.34395878    13

Отслеживайте STARLINK-31990 в реальном времени с AllMySat

Download on the App Store